Date String (YYYY-MM-DD hh:mm:ss) UTC,Instrument flags,Ambient pressure (hPa),Sample flow (lpm),Bypass flow (lpm),Sample temperature (°C),Ambient temperature (°C),ASC tube jacket temperature (°C),LED temperature (°C),Box temperature (°C),Sample RH (%),Span deviation,Mass concentration (μg/m³),Mass concentration (μg/m³),Mass concentration (μg/m³)
DateTimeUTC,F1_M11,P_M11,Q1_M11,Q2_M11,T1_M11,T2_M11,T3_M11,T4_M11,T5_M11,U1_M11,ZSPAN_M11,X0_M11,X2_M11,X1_M11
2022-09-24 08:00:00,,0829.8,4.99,0.00,30.7,29.1,00.0,39.5,32.5,10.7,0000.0,0008.28,0002.63,0001.82
2022-09-24 08:01:00,,0829.9,5.01,0.00,30.7,29.1,00.0,39.5,32.5,10.7,0000.0,0008.24,0002.63,0001.83
2022-09-24 08:02:00,,0829.9,4.98,0.00,30.7,29.1,00.0,39.5,32.5,10.6,0000.0,0008.26,0002.63,0001.84
2022-09-24 08:03:00,,0829.9,5.01,0.00,30.7,29.1,00.0,39.5,32.5,10.6,0000.0,0008.28,0002.61,0001.85
2022-09-24 08:04:00,,0829.8,5.00,0.00,30.7,29.1,00.0,39.5,32.5,10.6,0000.0,0008.24,0002.57,0001.86
2022-09-24 08:05:00,,0829.8,5.01,0.00,30.7,29.1,00.0,39.5,32.5,10.6,0000.0,0008.29,0002.61,0001.88
2022-09-24 08:06:00,,0829.9,4.99,0.00,30.7,29.1,00.0,39.5,32.4,10.6,0000.0,0008.31,0002.64,0001.90
2022-09-24 08:07:00,,0829.8,5.01,0.00,30.7,29.0,00.0,39.5,32.5,10.6,0000.0,0007.84,0002.64,0001.91
2022-09-24 08:08:00,,0829.9,4.98,0.00,30.7,29.1,00.0,39.5,32.5,10.9,0000.0,0006.15,0002.65,0001.93
2022-09-24 08:09:00,,0829.9,5.01,0.00,30.7,29.1,00.0,39.5,32.5,10.8,0000.0,0004.87,0002.64,0001.94
2022-09-24 08:10:00,,0829.9,4.99,0.00,30.7,29.1,00.0,39.5,32.5,10.8,0000.0,0004.46,0002.66,0001.94
2022-09-24 08:11:00,,0829.9,5.01,0.00,30.7,29.1,00.0,39.5,32.5,11.0,0000.0,0004.53,0002.70,0001.94
2022-09-24 08:12:00,,0829.9,5.00,0.00,30.7,29.1,00.0,39.5,32.5,11.1,0000.0,0004.60,0002.71,0001.94
2022-09-24 08:13:00,,0829.9,5.01,0.00,30.7,29.1,00.0,39.5,32.5,11.2,0000.0,0004.72,0002.67,0001.93
2022-09-24 08:14:00,,0829.9,4.99,0.00,30.7,29.1,00.0,39.5,32.5,11.2,0000.0,0004.76,0002.66,0001.94
2022-09-24 08:15:00,,0829.9,5.01,0.00,30.7,29.1,00.0,39.5,32.4,11.1,0000.0,0004.92,0002.69,0001.94
2022-09-24 08:16:00,,0829.9,4.99,0.00,30.7,29.0,00.0,39.5,32.4,11.0,0000.0,0004.94,0002.69,0001.94
2022-09-24 08:17:00,,0829.9,5.01,0.00,30.7,29.0,00.0,39.5,32.4,10.9,0000.0,0005.01,0002.68,0001.94
2022-09-24 08:18:00,,0829.9,4.99,0.00,30.7,29.0,00.0,39.5,32.4,10.9,0000.0,0005.38,0002.66,0001.94
2022-09-24 08:19:00,,0829.9,5.02,0.00,30.7,29.0,00.0,39.5,32.4,10.9,0000.0,0005.59,0002.64,0001.94
2022-09-24 08:20:00,,0829.9,5.00,0.00,30.7,29.0,00.0,39.5,32.4,10.8,0000.0,0005.45,0002.60,0001.94
2022-09-24 08:21:00,,0829.9,4.99,0.00,30.7,29.0,00.0,39.5,32.4,10.8,0000.0,0005.33,0002.56,0001.94
2022-09-24 08:22:00,,0829.9,5.01,0.00,30.7,29.0,00.0,39.5,32.4,10.6,0000.0,0005.55,0002.54,0001.94
2022-09-24 08:23:00,,0829.8,4.99,0.00,30.6,29.0,00.0,39.5,32.4,10.5,0000.0,0005.77,0002.58,0001.93
2022-09-24 08:24:00,,0829.9,5.00,0.00,30.6,29.0,00.0,39.5,32.4,10.5,0000.0,0005.62,0002.62,0001.95
2022-09-24 08:25:00,,0829.9,4.99,0.00,30.6,29.0,00.0,39.5,32.4,10.6,0000.0,0005.75,0002.65,0001.95
2022-09-24 08:26:00,,0829.8,5.01,0.00,30.6,29.0,00.0,39.5,32.4,10.6,0000.0,0006.44,0002.68,0001.96
2022-09-24 08:27:00,,0829.9,5.01,0.00,30.6,29.0,00.0,39.5,32.4,10.7,0000.0,0007.61,0002.66,0001.97
2022-09-24 08:28:00,,0829.8,4.99,0.00,30.6,29.1,00.0,39.5,32.4,11.2,0000.0,0007.65,0002.65,0001.98
2022-09-24 08:29:00,,0829.8,5.01,0.00,30.7,29.1,00.0,39.4,32.4,11.1,0000.0,0007.40,0002.62,0001.98
2022-09-24 08:30:00,,0829.8,4.98,0.00,30.7,29.0,00.0,39.4,32.4,11.1,0000.0,0007.23,0002.65,0001.98
2022-09-24 08:31:00,,0829.8,5.01,0.00,30.6,29.0,00.0,39.4,32.4,11.0,0000.0,0007.32,0002.69,0001.97
2022-09-24 08:32:00,,0829.9,5.00,0.00,30.6,29.0,00.0,39.4,32.4,10.9,0000.0,0007.51,0002.78,0001.98
2022-09-24 08:33:00,,0829.8,5.00,0.00,30.6,29.0,00.0,39.4,32.4,11.0,0000.0,0007.53,0002.82,0001.98
2022-09-24 08:34:00,,0829.9,5.01,0.00,30.6,29.0,00.0,39.4,32.4,11.0,0000.0,0007.50,0002.85,0001.99
2022-09-24 08:35:00,,0829.9,5.00,0.00,30.6,29.0,00.0,39.4,32.4,11.0,0000.0,0007.60,0002.81,0001.99
2022-09-24 08:36:00,,0829.8,5.01,0.00,30.6,29.0,00.0,39.4,32.4,11.1,0000.0,0007.68,0002.80,0002.00
2022-09-24 08:37:00,,0829.9,4.99,0.00,30.6,29.0,00.0,39.4,32.4,11.0,0000.0,0007.40,0002.80,0002.00
2022-09-24 08:38:00,,0829.8,5.01,0.00,30.6,29.0,00.0,39.4,32.4,11.0,0000.0,0006.23,0002.84,0002.01
2022-09-24 08:39:00,,0829.9,4.99,0.00,30.6,29.0,00.0,39.4,32.4,11.0,0000.0,0006.18,0002.86,0002.01
2022-09-24 08:40:00,,0829.9,5.01,0.00,30.6,29.0,00.0,39.4,32.4,10.8,0000.0,0006.32,0002.91,0002.03
2022-09-24 08:41:00,,0829.8,4.99,0.00,30.6,29.0,00.0,39.4,32.4,11.0,0000.0,0006.41,0002.93,0002.03
2022-09-24 08:42:00,,0829.9,5.01,0.00,30.6,29.0,00.0,39.4,32.4,10.9,0000.0,0006.32,0002.88,0002.04
2022-09-24 08:43:00,,0829.9,4.99,0.00,30.6,29.0,00.0,39.4,32.4,10.9,0000.0,0006.06,0002.82,0002.04
2022-09-24 08:44:00,,0829.8,5.01,0.00,30.6,28.9,00.0,39.4,32.4,10.9,0000.0,0005.93,0002.79,0002.05
2022-09-24 08:45:00,,0829.8,4.99,0.00,30.6,29.0,00.0,39.4,32.4,11.0,0000.0,0005.67,0002.72,0002.06
2022-09-24 08:46:00,,0829.9,5.00,0.00,30.6,29.0,00.0,39.4,32.4,10.9,0000.0,0005.55,0002.74,0002.06
2022-09-24 08:47:00,,0830.0,5.00,0.00,30.6,29.0,00.0,39.4,32.4,10.8,0000.0,0005.17,0002.72,0002.07
2022-09-24 08:48:00,,0829.9,4.99,0.00,30.6,29.0,00.0,39.4,32.4,10.7,0000.0,0004.99,0002.71,0002.06
2022-09-24 08:49:00,,0829.9,5.01,0.00,30.6,29.0,00.0,39.4,32.4,10.6,0000.0,0004.94,0002.72,0002.05
2022-09-24 08:50:00,,0830.0,4.99,0.00,30.6,29.0,00.0,39.4,32.4,10.6,0000.0,0004.61,0002.67,0002.03
2022-09-24 08:51:00,,0830.1,5.00,0.00,30.6,29.0,00.0,39.4,32.4,11.0,0000.0,0004.61,0002.68,0002.03
2022-09-24 08:52:00,,0830.1,5.00,0.00,30.6,29.1,00.0,39.4,32.4,11.7,0000.0,0004.66,0002.72,0002.02
2022-09-24 08:53:00,,0830.1,5.00,0.00,30.6,29.0,00.0,39.4,32.4,11.7,0000.0,0004.61,0002.72,0002.02
2022-09-24 08:54:00,,0830.2,4.99,0.00,30.6,29.0,00.0,39.4,32.4,11.5,0000.0,0004.61,0002.70,0002.01
2022-09-24 08:55:00,,0830.1,5.01,0.00,30.6,29.0,00.0,39.4,32.4,11.2,0000.0,0004.52,0002.68,0002.02
2022-09-24 08:56:00,,0830.1,4.98,0.00,30.6,29.0,00.0,39.4,32.4,11.4,0000.0,0004.67,0002.71,0002.01
2022-09-24 08:57:00,,0830.1,5.01,0.00,30.6,29.1,00.0,39.4,32.4,11.3,0000.0,0004.46,0002.69,0002.01
2022-09-24 08:58:00,,0830.1,4.99,0.00,30.6,29.1,00.0,39.4,32.4,11.6,0000.0,0004.97,0002.72,0002.01
2022-09-24 08:59:00,,0830.1,5.02,0.00,30.6,29.1,00.0,39.4,32.4,11.6,0000.0,0005.14,0002.74,0002.01
